Location: Cheyres
(46.8153°N, 6.7877°E)
Time: 21:31:42
(UTC+00:00)

BlueWalker 3 - Pass Details

Date: 06 March 2024
Orbit: 485 x 495 km, 53.2° (Epoch: 22 April)

Event Time Altitude Azimuth Distance (km) Brightness Sun altitude
Rises 19:05:46 0° 288° (WNW) 2,560 7.2 -17.8°
Reaches altitude 10° 19:08:44 10° 263° (W) 1,671 5.7 -18.2°
Maximum altitude 19:10:48 14° 230° (SW) 1,418 4.7 -18.6°
Drops below altitude 10° 19:12:52 10° 196° (SSW) 1,661 4.6 -18.9°
Enters shadow 19:14:14 - 182° (S) 2,021 4.9 -19.2°
